www.pogodaiklimat.ru

Погода и климат >> Архив погоды >> Таиланд >> Утай Тани


ПОГОДА в Утай Тани

  • Прогноз погоды в Утай Тани
  • Монитор погоды в Утай Тани

АРХИВ ПОГОДЫ в Утай Тани

Время (UTC), дата Ветер
(напр.,м/с)
 
Видим.   Явления Облачность Т
(С)
Тd
(С)
f
(%)
Тe
(С)
Тes
(С)
Комфортность P
(гПа)
Po
(гПа)
Тmin
(С)
Tmax
(С)
R
(мм)
R24
(мм)
S
(см)
18 16.07 штиль 0 10 км {дождь} 8/1 600 м
[Cu hum Ac lent Cs]
+27.3 +26.0 93 +41 +41 опасность
перегрева
1004.1 1001.0 4
21 16.07 штиль 0 10 км 6/1 600 м
[Cu hum Ac lent Cs]
+26.3 +25.0 93 +38 +38 очень
душно
1002.8 999.8
00 17.07 штиль 0 10 км 8/1 600 м
[Cu hum Ac lent Cs]
+26.3 +23.8 86 +36 +37 очень
душно
1003.2 1000.2 +24.3
03 17.07 штиль 0 10 км 8/1 600 м
[Cu med, cong Ac lent Cs]
+31.9 +23.4 61 +43 +54 опасность
перегрева
1004.3 1001.3
06 17.07 штиль 0 10 км 8/5 600 м
[Cu Sc Ac lent Cs]
+34.9 +22.9 50 +45 +55 опасность
перегрева
1003.5 1000.5
09 17.07 штиль 0 10 км 8/5 600 м
[Cu Sc Ac lent Cs]
+35.9 +23.0 47 +46 +49 опасность
перегрева
1000.8 997.9
12 17.07 штиль 0 10 км 8/3 600 м
[Sc Ac lent Cs]
+33.2 +24.9 62 +47 +47 опасность
перегрева
1000.6 997.7 +36.3
15 17.07 штиль 0 10 км 5/0
[Cs]
+30.4 +25.5 75 +45 +45 опасность
перегрева
1003.0 1000.1
18 17.07 штиль 0 10 км 8/0
[Cs]
+28.8 +26.1 85 +43 +43 опасность
перегрева
1003.1 1000.1
21 17.07 штиль 0 10 км 8/0
[Cs]
+27.2 +24.2 84 +38 +38 очень
душно
1002.3 999.3
00 18.07 штиль 0 10 км 6/0
[Ac trans Cs]
+27.4 +24.7 85 +39 +40 очень
душно
1003.0 1000.0 +25.4
03 18.07 штиль 0 10 км 4/1 600 м
[Cu hum Ac lent Cs]
+33.2 +22.6 54 +43 +58 опасность
перегрева
1003.7 1000.7
06 18.07 штиль 0 10 км 8/4 600 м
[Cu Sc Ac lent Cs]
+36.0 +23.6 49 +47 +58 опасность
перегрева
1003.0 1000.1
09 18.07 штиль 0 10 км 8/3 300 м
[Cb calv Ac lent Cs]
+36.4 +23.9 49 +48 +53 опасность
перегрева
1001.2 998.3
12 18.07 штиль 0 10 км {гроза} 8/3 600 м
[Cu Sc Ac trans Cs]
+28.6 +23.2 73 +39 +39 очень
душно
1002.3 999.3 +37.0
15 18.07 штиль 0 10 км 4/1 600 м
[Sc Ac lent Cs]
+28.2 +24.3 79 +39 +39 очень
душно
1013.8 1010.8
18 18.07 штиль 0 10 км 4/0
[Cs]
+27.9 +24.7 83 +40 +40 очень
душно
1003.6 1000.6
21 18.07 штиль 0 10 км 5/0
[Cs]
+26.8 +25.1 90 +39 +39 очень
душно
1002.8 999.7
00 19.07 штиль 0 10 км 6/0
[Cs]
+26.8 +24.9 89 +38 +40 очень
душно
1004.0 1001.0 +25.3
03 19.07 штиль 0 10 км 5/0
[Cs]
+33.5 +22.8 54 +44 +62 опасность
перегрева
1005.2 1002.3
06 19.07 штиль 0 10 км 8/4 600 м
[Cu Sc Cs]
+37.0 +21.2 40 +44 +59 опасность
перегрева
1003.9 1001.0
09 19.07 штиль 0 10 км 8/4 600 м
[Cu Sc Ac lent Cs]
+37.1 +23.2 45 +47 +52 опасность
перегрева
1001.1 998.2
12 19.07 штиль 0 10 км осадки на расстоянии 9/5 300 м
[Cb cap Ac As Cs]
+33.9 +23.9 56 +45 +45 опасность
перегрева
1001.7 998.8 +37.8
15 19.07 штиль 0 10 км 5/0
[Cs]
+28.7 +22.8 70 +38 +38 очень
душно
1004.5 1001.5
18 19.07 штиль 0 10 км 6/3 600 м
[Sc Cs]
+27.6 +25.0 86 +40 +40 очень
душно
1004.8 1001.8
21 19.07 штиль 0 10 км 4/3 600 м
[Sc Cs]
+26.2 +24.9 93 +37 +37 очень
душно
1003.9 1000.9
00 20.07 штиль 0 10 км 6/1 600 м
[Sc Ac trans Cs]
+26.9 +25.5 92 +39 +41 очень
душно
1005.2 1002.2 +25.2
03 20.07 штиль 0 10 км 8/1 600 м
[Cu hum Ac trans Cs]
+32.4 +24.6 64 +45 +57 опасность
перегрева
1006.7 1003.7
06 20.07 штиль 0 10 км 8/4 600 м
[Cu med, cong Ac trans Cs]
+35.1 +23.0 50 +45 +57 опасность
перегрева
1005.7 1002.7
09 20.07 штиль 0 10 км 8/4 600 м
[Cu Sc Ac trans Cs]
+36.9 +23.5 46 +47 +52 опасность
перегрева
1002.7 999.7
12 20.07 штиль 0 10 км 9/3 300 м
[Cb cap Ac lent Cs]
+33.1 +25.2 63 +47 +47 опасность
перегрева
1003.3 1000.3 +37.0
15 20.07 штиль 0 10 км 8/3 600 м
[Cu Sc Ac trans Cs]
+29.2 +24.6 76 +41 +41 опасность
перегрева
1006.3 1003.3
18 20.07 штиль 0 10 км 5/1 600 м
[Cu hum Ac lent Cs]
+28.1 +24.7 82 +40 +40 очень
душно
1006.2 1003.2
21 20.07 штиль 0 10 км 5/1 600 м
[Sc Ac lent Cs]
+27.4 +25.1 87 +39 +39 очень
душно
1005.7 1002.7
00 21.07 штиль 0 10 км 8/3 600 м
[Sc Ac trans Cs]
+27.7 +25.4 87 +40 +41 очень
душно
1006.8 1003.8 +26.5
03 21.07 штиль 0 10 км 9/3 600 м
[Cu Sc Ac trans Cs]
+31.9 +24.8 66 +45 +53 опасность
перегрева
1007.7 1004.8
06 21.07 штиль 0 10 км 9/3 600 м
[Cu med, cong Ac trans Cs]
+35.1 +22.8 49 +45 +56 опасность
перегрева
1006.7 1003.7
09 21.07 штиль 0 10 км 8/3 300 м
[Cb cap Ac trans Cs]
+35.2 +21.9 46 +43 +48 опасность
перегрева
1004.7 1001.8
12 21.07 штиль 0 10 км 8/4 600 м
[Cu Sc Ac trans Cs]
+33.6 +25.0 61 +47 +47 опасность
перегрева
1005.3 1002.3 +36.4
15 21.07 штиль 0 10 км 9/4 600 м
[Cu Sc Ac trans Cs]
+32.2 +21.7 54 +41 +41 опасность
перегрева
1007.3 1004.4
18 21.07 штиль 0 10 км 6/1 600 м
[Sc Ac trans Cs]
+29.7 +24.1 72 +41 +41 опасность
перегрева
1007.0 1004.0
21 21.07 штиль 0 10 км 9/3 600 м
[Sc Ac trans Cs]
+29.3 +23.2 70 +40 +40 очень
душно
1006.8 1003.8
00 22.07 штиль 0 10 км 8/1 600 м
[Sc Ac trans Cs]
+28.7 +22.5 69 +38 +39 очень
душно
1008.1 1005.1 +27.7
03 22.07 штиль 0 10 км 8/1 600 м
[Cu Sc Ac lent Cs]
+33.7 +21.7 50 +42 +54 опасность
перегрева
1008.3 1005.4
06 22.07 штиль 0 10 км 9/6 600 м
[Cu med, cong Ac lent Cs]
+31.7 +23.0 60 +42 +49 опасность
перегрева
1006.9 1003.9
09 22.07 штиль 0 10 км 8/4 600 м
[Cu med, cong Ac lent Cs]
+35.5 +23.3 49 +46 +50 опасность
перегрева
1004.4 1001.5
12 22.07 штиль 0 10 км 10/6 600 м
[Cu Sc Ac As Cs]
+32.8 +25.8 67 +48 +48 опасность
перегрева
1004.2 1001.2 +37.0
15 22.07 штиль 0 10 км 8/3 600 м
[Cu med, cong Ac lent Cs]
+31.1 +26.2 75 +47 +47 опасность
перегрева
1006.5 1003.5
18 22.07 штиль 0 10 км 9/3 600 м
[Cu med, cong Ac und Cs]
+29.4 +24.8 76 +42 +42 опасность
перегрева
1006.5 1003.5
21 22.07 штиль 0 7000 м слаб. дождь 10/6 600 м
[Cu Sc Ac As Cs]
+28.2 +26.2 89 +43 +43 опасность
перегрева
1006.0 1003.0 0.3
00 23.07 штиль 0 10 км {дождь} 10/6 600 м
[Cu Sc Ac As Cs]
+28.0 +25.9 88 +42 +42 опасность
перегрева
1006.3 1003.3 +26.8 0.1
03 23.07 штиль 0 10 км 10/6 600 м
[Cu Sc Ac As Cs]
+32.2 +22.9 58 +42 +46 опасность
перегрева
1006.7 1003.7
06 23.07 штиль 0 10 км 10/5 600 м
[Cu Sc Ac As Cs]
+34.8 +22.8 50 +45 +52 опасность
перегрева
1006.5 1003.5
09 23.07 штиль 0 10 км 10/3 600 м
[Cu Sc Ac lent Cs]
+35.0 +21.7 46 +43 +47 опасность
перегрева
1004.6 1001.7
12 23.07 штиль 0 10 км 10/4 600 м
[Cu Sc Ac As Cs]
+33.4 +22.8 54 +43 +43 опасность
перегрева
1004.1 1001.2 +35.8
15 23.07 штиль 0 10 км 10/4 600 м
[Cu Sc Ac As Cs]
+31.3 +22.2 59 +40 +40 очень
душно
1006.9 1003.9

 

Местоположение метеостанции Утай Тани (Таиланд): широта 15.38 долгота 100.04 высота над уровнем моря 26 м.

В архиве по умолчанию представлена погода в Утай Тани за последнюю неделю. Архивные данные за месяц целиком и за предыдущие месяцы, начиная с января 2011 года, Вы можете получить, выбрав интересующий диапазон дат из раскрывающегося списка и нажав кнопку "Ввод!".


*Определитесь, кто Вы:
робот инопланетянин человек

Внимание! Время в таблицах - всемирное. Для получения местного времени необходимо прибавить поправку, которая равна 7 ч.

Смотрите также архив погоды в соседних городах и на ближайших метеорологических станциях:

Погода в Чайнат Агромете (Таиланд) (30 км)
Погода в Накхон Саван (Таиланд) (48 км)
Погода в Такфа Агромете (Таиланд) (49 км)
Погода в Лопбури (Таиланд) (89 км)
Погода в Лаем-Чабанге (Таиланд) (96 км)
Погода в Суфанбури (Таиланд) (102 км)
Погода в Вичан Бури (Таиланд) (118 км)
Погода в Пичит Агромете (Таиланд) (120 км)
Погода в Аюттхая (Таиланд) (120 км)
Погода в У-Тхонг Агромете (Таиланд) (122 км)

Пояснения к столбцам:

Ветер - указаны скорость ветра в м/с - средняя за 10 мин, порывы в срок и между сроками (в фигурных скобках) и направление, откуда дует ветер: С - северный, СВ - северо-восточный, В - восточный, ЮВ - юго-восточный, Ю - южный, ЮЗ - юго-западный, З - западный, СЗ - северо-западный.
Видимость - горизонтальная дальность видимости в метрах или километрах. При видимости от 1 до 10 км при отсутствии осадков обычно наблюдается дымка, при ухудшении видимости до 1 км и менее - туман. В сухую погоду видимость может ухудшаться дымом, пылью или мглою.
Явления - указаны атмосферные явления, наблюдавшиеся в срок или в последний час перед сроком; фигурными скобками обозначены явления, наблюдавшиеся между сроками (за 1-3 часа до срока); квадратными скобками обозначены град или гололедные отложения с указанием их диаметра в мм.
Облачность - указаны через наклонную черту общая и нижняя облачность в баллах и высота нижней границы облаков в метрах; квадратными скобками обозначены формы облаков: Ci - перистые, Cs - перисто-слоистые, Cc - перисто-кучевые, Ac - высококучевые, As - высокослоистые, Sc - слоисто-кучевые, Ns - слоисто-дождевые, Cu - кучевые, Cb - кучево-дождевые. Подробнее классификацию облаков см. в Атласе облаков (PDF).
T - Температура воздуха - температура, измеренная на высоте 2 м над землей.
Td - Температура точки росы - температура, при понижении до которой содержащийся в воздухе водяной пар достигнет насыщения.
f - Относительная влажность воздуха - влажноcть воздуха, измеренная на высоте 2 м над землей.
Te - Эффективная температура - температура, которую ощущает одетый по сезону человек в тени. Характеристика душности погоды. При расчете учитывается влияние влажности воздуха и скорости ветра на теплоощущения человека.
Tes - Эффективная температура на солнце - температура, которую ощущает человек, с поправкой на солнечный нагрев. Характеристика знойности погоды. Зависит от высоты солнца над горизонтом, облачности и скорости ветра. Ночью, в пасмурную погоду, а также при ветре 12 м/с и более поправка равна нулю.
P - Атмосферное давление - приведенное к уровню моря атмосферное давление.
Po - Атмосферное давление - измеренное на уровне метеостанции атмосферное давление.
Tmin - Минимальная температура - минимум температуры воздуха на высоте 2 м над землей.
Tmax - Максимальная температура - максимум температуры воздуха на высоте 2 м над землей.
R - Количество осадков - Количество выпавших осадков за период времени, мм. При наведении курсора мыши на число - период времени, за который выпало указанное количество осадков.
R24 - Количество осадков - Количество выпавших осадков за 24 часа, мм.
S - Снежный покров - Высота снежного покрова, см. При наведении курсора мыши на число - состояние снежного покрова и степень покрытия местности в баллах.